User: anonymous   Login
Location: Onan Observatory
(44.8103°N, 93.9397°W)
Time: 02:13:06
(UTC-05:00)
Language:

Iridium 90 - Orbit

View from above orbital plane
View from above orbital plane
View from above satellite
View from above satellite

Ground track
Ground track

The orbit data is extracted from the following two-line orbital elements,

1 27373U 02005B   16241.47903840  .00000133  00000-0  33880-4 0  9991
2 27373  86.4462 112.4606 0002046  82.6764 277.4669 14.42954914769140
Epoch (UTC): 28 August 2016 11:29:48
Eccentricity: 0.0002046
inclination: 86.4462°
perigee height: 747 km
apogee height: 750 km
right ascension of ascending node: 112.4606°
argument of perigee: 82.6764°
revolutions per day: 14.42954914
mean anomaly at epoch: 277.4669°
orbit number at epoch: 76914

The dashed part of the orbit path shows where the satellite is in the earth's shadow,  

DLR